Change the Weather History Date:

Tuesday, December 4, 2012

  Actual Average Record
Temperature  
Mean Temperature 58 °F -  
Max Temperature 73 °F 54 °F 78 °F (1998)
Min Temperature 42 °F 30 °F 5 °F (1999)
Degree Days  
Heating Degree Days 8    
Growing Degree Days 8 (Base 50)    
Moisture  
Dew Point 47 °F    
Average Humidity 68    
Maximum Humidity 100    
Minimum Humidity 33    
Precipitation  
Precipitation 0.00 in - - ()
Sea Level Pressure  
Sea Level Pressure 30.18 in    
Wind  
Wind Speed 3 mph (SSW)    
Max Wind Speed 12 mph    
Max Gust Speed -    
Visibility 7 miles    
Events Fog    
Averages and records for this station are not official NWS values.
T = Trace of Precipitation, MM = Missing Value Source: NWS Daily Summary

Daily Weather History Graph

Daily Weather History Graph

Search for Another Location

Airport or City:

Trip Planner

Search our weather history database for the weather conditions in past years. The results will help you decide how hot, cold, wet, or windy it might be!

Date:

Astronomy

Dec. 04, 2012 Rise Set
Actual Time 7:12 AM EST 4:55 PM EST
Civil Twilight 6:43 AM EST 5:24 PM EST
Nautical Twilight 6:11 AM EST 5:57 PM EST
Astronomical Twilight 5:39 AM EST 6:28 PM EST
Moon 10:36 PM EST (12/4) 11:09 AM EST (12/4)
Length of Visible Light 10h 41m
Length of Day
9h 43m
Waning Gibbous, 69% of the Moon is Illuminated
Dec 4
Waning Gibbous
Dec 6
Last Quarter
Dec 13
New
Dec 20
First Quarter
Dec 28
Full

Hourly Weather History & Observations

Time (EST) Temp. Windchill Dew Point Humidity Pressure Visibility Wind Dir Wind Speed Gust Speed Precip Events Conditions
12:15 AM 51.8 °F - 48.2 °F 88% 30.23 in 7.0 mi Calm Calm - N/A   Clear
12:35 AM 48.2 °F - 46.4 °F 93% 30.23 in 1.5 mi Calm Calm - N/A   Mostly Cloudy
12:55 AM 50.0 °F - 48.2 °F 94% 30.23 in 1.5 mi Calm Calm - N/A   Mist
1:15 AM 50.0 °F - 48.2 °F 94% 30.23 in 1.2 mi Calm Calm - N/A   Mist
1:35 AM 46.4 °F 45.2 °F 44.6 °F 93% 30.22 in 2.0 mi SW 3.5 mph - N/A   Clear
1:55 AM 46.4 °F - 44.6 °F 93% 30.23 in 4.0 mi Calm Calm - N/A   Clear
2:15 AM 50.0 °F - 48.2 °F 94% 30.23 in 3.0 mi Calm Calm - N/A   Clear
2:35 AM 48.2 °F - 46.4 °F 93% 30.23 in 2.0 mi Calm Calm - N/A   Clear
2:55 AM 50.0 °F - 48.2 °F 94% 30.23 in 2.5 mi Calm Calm - N/A   Clear
3:15 AM 51.8 °F - 51.8 °F 100% 30.23 in 7.0 mi Calm Calm - N/A   Clear
3:55 AM 46.4 °F - 44.6 °F 93% 30.22 in 0.2 mi Calm Calm - N/A Fog Fog
4:15 AM 48.2 °F - 48.2 °F 100% 30.22 in 1.2 mi SW 3.5 mph - N/A   Mostly Cloudy
4:35 AM 46.4 °F 45.2 °F 46.4 °F 100% 30.22 in 0.8 mi SSW 3.5 mph - N/A   Mist
4:55 AM 46.4 °F - 44.6 °F 93% 30.22 in 0.5 mi Calm Calm - N/A Fog Fog
5:15 AM 46.4 °F 45.2 °F 44.6 °F 93% 30.22 in 0.8 mi SW 3.5 mph - N/A   Mist
5:35 AM 46.4 °F 45.2 °F 44.6 °F 93% 30.23 in 0.5 mi South 3.5 mph - N/A Fog Fog
5:55 AM 44.6 °F - 44.6 °F 100% 30.23 in 0.5 mi Calm Calm - N/A Fog Fog
6:15 AM 48.2 °F - 48.2 °F 100% 30.23 in 0.2 mi Calm Calm - N/A Fog Fog
6:35 AM 48.2 °F - 48.2 °F 100% 30.24 in 0.5 mi Calm Calm - N/A Fog Fog
6:55 AM 46.4 °F - 44.6 °F 93% 30.24 in 0.2 mi Calm Calm - N/A Fog Fog
7:15 AM 44.6 °F 43.1 °F 42.8 °F 93% 30.24 in 0.2 mi SSW 3.5 mph - N/A Fog Fog
7:35 AM 42.8 °F 41.1 °F 41.0 °F 93% 30.24 in 0.2 mi South 3.5 mph - N/A Fog Fog
7:55 AM 48.2 °F - 46.4 °F 93% 30.25 in 0.5 mi SW 4.6 mph - N/A Fog Fog
8:15 AM 53.6 °F - 51.8 °F 94% 30.25 in 7.0 mi SSW 5.8 mph - N/A   Clear
8:35 AM 53.6 °F - 51.8 °F 94% 30.25 in 7.0 mi SSW 4.6 mph - N/A   Clear
8:55 AM 55.4 °F - 53.6 °F 94% 30.25 in 10.0 mi SSW 5.8 mph - N/A   Clear
9:15 AM 57.2 °F - 53.6 °F 88% 30.26 in 10.0 mi South 6.9 mph - N/A   Clear
9:35 AM 59.0 °F - 53.6 °F 82% 30.26 in 10.0 mi SSW 6.9 mph - N/A   Clear
9:55 AM 60.8 °F - 50.0 °F 68% 30.25 in 10.0 mi SSW 5.8 mph - N/A   Clear
10:15 AM 62.6 °F - 50.0 °F 63% 30.25 in 10.0 mi SSW 6.9 mph - N/A   Clear
10:35 AM 62.6 °F - 50.0 °F 63% 30.25 in 10.0 mi South 8.1 mph - N/A   Clear
10:55 AM 64.4 °F - 50.0 °F 59% 30.24 in 10.0 mi SSW 5.8 mph - N/A   Clear
11:15 AM 66.2 °F - 50.0 °F 56% 30.23 in 10.0 mi SSW 6.9 mph - N/A   Clear
11:35 AM 66.2 °F - 50.0 °F 56% 30.22 in 10.0 mi South 10.4 mph - N/A   Clear
11:55 AM 68.0 °F - 50.0 °F 52% 30.20 in 10.0 mi SSW 9.2 mph - N/A   Clear
12:15 PM 69.8 °F - 48.2 °F 46% 30.19 in 10.0 mi SSW 9.2 mph - N/A   Clear
12:35 PM 69.8 °F - 48.2 °F 46% 30.18 in 10.0 mi SSW 6.9 mph - N/A   Clear
1:15 PM 69.8 °F - 46.4 °F 43% 30.17 in 10.0 mi SSW 9.2 mph - N/A   Clear
1:35 PM 71.6 °F - 46.4 °F 41% 30.15 in 10.0 mi WSW 9.2 mph - N/A   Clear
1:55 PM 71.6 °F - 44.6 °F 38% 30.15 in 10.0 mi SSW 9.2 mph - N/A   Clear
2:15 PM 73.4 °F - 44.6 °F 36% 30.14 in 10.0 mi SW 6.9 mph - N/A   Clear
2:35 PM 73.4 °F - 44.6 °F 36% 30.14 in 10.0 mi SW 8.1 mph - N/A   Clear
2:55 PM 73.4 °F - 44.6 °F 36% 30.14 in 10.0 mi SW 8.1 mph - N/A   Clear
3:15 PM 71.6 °F - 44.6 °F 38% 30.14 in 10.0 mi SW 6.9 mph - N/A   Clear
3:35 PM 73.4 °F - 42.8 °F 33% 30.13 in 10.0 mi SW 8.1 mph - N/A   Clear
3:55 PM 73.4 °F - 42.8 °F 33% 30.13 in 10.0 mi SW 11.5 mph - N/A   Clear
4:15 PM 71.6 °F - 42.8 °F 35% 30.13 in 10.0 mi SW 5.8 mph - N/A   Clear
4:35 PM 69.8 °F - 42.8 °F 38% 30.13 in 10.0 mi SSW 4.6 mph - N/A   Clear
4:55 PM 66.2 °F - 44.6 °F 46% 30.13 in 10.0 mi Calm Calm - N/A   Clear
5:15 PM 66.2 °F - 44.6 °F 46% 30.13 in 10.0 mi SSW 4.6 mph - N/A   Clear
5:35 PM 64.4 °F - 44.6 °F 49% 30.13 in 10.0 mi South 3.5 mph - N/A   Clear
5:55 PM 64.4 °F - 44.6 °F 49% 30.13 in 10.0 mi South 4.6 mph - N/A   Clear
6:15 PM 64.4 °F - 44.6 °F 49% 30.14 in 10.0 mi SSW 4.6 mph - N/A   Clear
6:35 PM 62.6 °F - 44.6 °F 52% 30.13 in 10.0 mi SSW 4.6 mph - N/A   Clear
6:55 PM 62.6 °F - 44.6 °F 52% 30.13 in 10.0 mi SSW 5.8 mph - N/A   Scattered Clouds
7:15 PM 64.4 °F - 42.8 °F 45% 30.13 in 10.0 mi SSW 5.8 mph - N/A   Scattered Clouds
7:35 PM 62.6 °F - 44.6 °F 52% 30.13 in 10.0 mi SSW 4.6 mph - N/A   Clear
7:55 PM 60.8 °F - 44.6 °F 55% 30.13 in 10.0 mi SSW 5.8 mph - N/A   Clear
8:15 PM 60.8 °F - 44.6 °F 55% 30.13 in 10.0 mi SSW 6.9 mph - N/A   Clear
8:35 PM 62.6 °F - 46.4 °F 55% 30.12 in 10.0 mi SSW 6.9 mph - N/A   Clear
8:55 PM 62.6 °F - 46.4 °F 55% 30.12 in 10.0 mi SSW 9.2 mph - N/A   Clear
9:15 PM 62.6 °F - 48.2 °F 59% 30.12 in 10.0 mi SSW 8.1 mph - N/A   Clear
9:35 PM 62.6 °F - 48.2 °F 59% 30.12 in 10.0 mi SSW 9.2 mph - N/A   Scattered Clouds
9:55 PM 62.6 °F - 48.2 °F 59% 30.12 in 10.0 mi SSW 9.2 mph - N/A   Scattered Clouds
10:15 PM 62.6 °F - 48.2 °F 59% 30.12 in 10.0 mi SSW 6.9 mph - N/A   Scattered Clouds
10:35 PM 62.6 °F - 48.2 °F 59% 30.11 in 10.0 mi SSW 5.8 mph - N/A   Clear
10:55 PM 60.8 °F - 48.2 °F 63% 30.11 in 10.0 mi SSW 8.1 mph - N/A   Clear
11:15 PM 62.6 °F - 48.2 °F 59% 30.10 in 10.0 mi SSW 10.4 mph - N/A   Scattered Clouds
11:35 PM 62.6 °F - 48.2 °F 59% 30.10 in 10.0 mi SSW 8.1 mph - N/A   Mostly Cloudy
11:55 PM 60.8 °F - 48.2 °F 63% 30.09 in 10.0 mi South 8.1 mph - N/A   Overcast